EW9027 Weather Reports


Display with metric or nautical units.
time (UTC)temp
F
wind
direction
speed
MPH
gust
MPH
rain 1hr
in
rain 24hr
in
rain mn
in
humidity
%
barometer
mb
20260507060015 54 214 1.0 6.0 0.00 0.13 0.00 79 1010.8
20260507054512 52 259 2.0 7.0 0.00 0.13 0.00 82 1010.5
20260507053010 52 204 1.0 9.0 0.00 0.13 0.00 83 1010.1
20260507051510 52 250 1.0 5.0 0.00 0.13 0.00 84 1010.0
20260507050008 52 225 1.0 6.0 0.00 0.13 0.00 86 1009.9
20260507044506 51 214 2.0 4.0 0.00 0.13 0.00 87 1009.8
20260507043003 51 202 0.0 5.0 0.00 0.13 0.00 88 1009.6
20260507041501 51 233 1.0 4.0 0.00 0.13 0.00 89 1009.4
20260507040105 51 250 2.0 6.0 0.00 0.13 0.00 89 1009.2
20260507034601 51 187 1.0 3.0 0.00 0.13 0.00 89 1009.1
20260507033155 52 189 1.0 4.0 0.00 0.13 0.00 88 1008.9
20260507031553 52 210 0.0 7.0 0.00 0.13 0.00 87 1008.8
20260507030052 53 219 0.0 3.0 0.00 0.13 0.00 87 1008.6
20260507024557 53 253 0.0 2.0 0.00 0.13 0.00 86 1008.7
20260507023049 53 168 1.0 4.0 0.00 0.13 0.00 86 1008.6
20260507021550 53 212 1.0 5.0 0.00 0.13 0.00 87 1008.6
20260507020053 53 208 0.0 3.0 0.00 0.13 0.00 87 1008.3
20260507014549 53 247 1.0 2.0 0.00 0.13 0.00 88 1008.1
20260507013045 53 207 0.0 3.0 0.00 0.13 0.00 89 1008.3
20260507011547 53 214 1.0 4.0 0.00 0.13 0.00 89 1008.4
20260507010054 53 297 1.0 5.0 0.00 0.13 0.00 88 1008.3
20260507004541 53 279 0.0 4.0 0.00 0.13 0.00 88 1008.1
20260507003040 54 300 0.0 2.0 0.00 0.13 0.00 88 1007.9
20260507001546 54 193 0.0 2.0 0.00 0.13 0.00 88 1007.7
20260507000037 54 120 0.0 1.0 0.00 0.13 0.00 88 1007.7
20260506234535 54 257 0.0 4.0 0.00 0.13 0.00 87 1007.7
20260506233036 54 236 0.0 3.0 0.00 0.13 0.00 87 1007.5
20260506231533 54 227 0.0 3.0 0.00 0.13 0.00 85 1007.4
20260506230031 54 308 0.0 2.0 0.00 0.13 0.00 85 1007.2
20260506224530 54 257 0.0 1.0 0.00 0.13 0.00 85 1007.1
20260506223025 54 257 0.0 3.0 0.00 0.13 0.00 86 1006.9
20260506221523 55 342 0.0 4.0 0.00 0.13 0.00 85 1006.6
20260506220019 55 16 5.0 12.0 0.00 0.13 0.13 84 1005.3
20260506214618 55 301 2.0 8.0 0.00 0.13 0.13 82 1005.7
20260506213016 56 45 1.0 4.0 0.00 0.13 0.13 82 1005.9
20260506211516 56 229 1.0 4.0 0.00 0.13 0.13 83 1005.8
20260506210017 56 259 2.0 9.0 0.00 0.13 0.13 83 1005.6
20260506204516 56 31 1.0 6.0 0.00 0.13 0.13 83 1005.6
20260506203015 57 358 2.0 13.0 0.00 0.13 0.13 83 1005.4
20260506201520 57 53 0.0 2.0 0.00 0.13 0.13 84 1004.3
20260506200016 57 324 0.0 4.0 0.00 0.13 0.13 84 1004.2
20260506194514 57 2 2.0 5.0 0.00 0.13 0.13 83 1004.1
20260506193013 57 24 0.0 3.0 0.00 0.13 0.13 83 1004.2
20260506191513 57 41 2.0 9.0 0.00 0.13 0.13 82 1004.2
20260506190012 58 76 3.0 14.0 0.00 0.13 0.13 81 1003.9
20260506184520 60 24 3.0 11.0 0.00 0.13 0.13 81 1003.7
20260506183010 60 292 4.0 13.0 0.00 0.13 0.13 80 1003.3
20260506181509 61 7 2.0 7.0 0.00 0.13 0.13 77 1003.2
20260506180010 62 62 3.0 7.0 0.00 0.13 0.13 75 1003.1
20260506174511 63 349 3.0 10.0 0.00 0.13 0.13 76 1003.0
20260506173009 63 39 2.0 6.0 0.00 0.13 0.13 76 1002.9
20260506171508 65 35 1.0 2.0 0.00 0.13 0.13 72 1002.8
20260506170011 67 175 0.0 5.0 0.00 0.13 0.13 56 1002.9
20260506164507 68 133 1.0 8.0 0.00 0.13 0.13 57 1002.8
20260506163008 68 6 0.0 2.0 0.00 0.13 0.13 65 1003.0
20260506161503 66 257 0.0 1.0 0.00 0.13 0.13 74 1003.3
20260506160001 64 346 0.0 3.0 0.00 0.13 0.13 77 1003.5
20260506154602 64 44 1.0 3.0 0.00 0.13 0.13 76 1003.5
20260506153058 64 360 1.0 4.0 0.00 0.13 0.13 75 1003.7
20260506151558 63 256 2.0 7.0 0.00 0.13 0.13 75 1003.9
20260506144608 65 32 1.0 5.0 0.09 0.13 0.13 73 1004.3
20260506143055 65 58 0.0 2.0 0.09 0.13 0.13 74 1004.5
20260506141550 64 356 1.0 3.0 0.09 0.13 0.13 74 1004.6
20260506140103 66 346 0.0 6.0 0.04 0.04 0.04 66 1004.6
20260506134547 66 20 0.0 3.0 0.04 0.04 0.04 68 1004.7
20260506133056 65 59 0.0 2.0 0.04 0.04 0.04 71 1005.0
20260506131546 64 148 0.0 6.0 0.04 0.04 0.04 70 1005.4
20260506130110 68 207 2.0 7.0 0.00 0.00 0.00 51 1005.5
20260506124540 70 207 3.0 9.0 0.00 0.00 0.00 49 1005.5
20260506123044 70 197 1.0 5.0 0.00 0.00 0.00 44 1005.5
20260506121549 71 125 2.0 11.0 0.00 0.00 0.00 44 1005.7
20260506120037 70 181 2.0 9.0 0.00 0.00 0.00 49 1005.9
20260506114536 71 139 3.0 8.0 0.00 0.00 0.00 45 1005.8
20260506113039 70 149 3.0 8.0 0.00 0.00 0.00 44 1006.0
20260506111536 70 101 2.0 5.0 0.00 0.00 0.00 46 1006.1
20260506110041 71 272 2.0 6.0 0.00 0.00 0.00 46 1006.2
20260506104534 72 196 2.0 6.0 0.00 0.00 0.00 46 1006.3
20260506103032 72 214 1.0 5.0 0.00 0.00 0.00 47 1006.5
20260506101532 70 359 0.0 6.0 0.00 0.00 0.00 53 1006.7
20260506100026 68 149 3.0 7.0 0.00 0.00 0.00 54 1006.8
20260506094527 68 288 2.0 8.0 0.00 0.00 0.00 54 1007.0
20260506093031 68 209 3.0 7.0 0.00 0.00 0.00 52 1007.0
20260506091521 67 300 1.0 4.0 0.00 0.00 0.00 56 1006.9
20260506090019 67 185 0.0 7.0 0.00 0.00 0.00 57 1007.0
20260506084518 66 204 0.0 3.0 0.00 0.00 0.00 58 1007.1
20260506083027 66 50 1.0 4.0 0.00 0.00 0.00 58 1007.0
20260506081516 65 251 1.0 4.0 0.00 0.00 0.00 61 1007.1
20260506073008 63 234 0.0 6.0 0.00 0.00 0.00 66 1007.1
20260506071504 61 277 1.0 5.0 0.00 0.00 0.00 70 1007.3
20260506061559 59 230 0.0 4.0 0.00 0.00 0.00 73 1007.3